When you browse on this site, cookies collect data to enhance your experience and personalize the content and advertising you see.
Visit our Privacy Policy to learn more. By continuing to use the site, you agree to this use of cookies and data.
  • In Spain
  • List of Countries
  • For 7 days
  • Water Temperature
  • Satellite Maps
  • Weather Map
  • Weather Widgets
  • user-avatar
    Login

    Hourly Weather Tabuk

    Today, 18 February, Monday

    Time Temperature Precipitation Wind Pressure Humidity
    00:00 +9°C° 0 mm 2 mps 686 mmHg 26%
    01:00 +9°C° 0 mm 2 mps 686 mmHg 26%
    02:00 +8°C° 0 mm 3 mps 685 mmHg 26%
    03:00 +8°C° 0 mm 3 mps 685 mmHg 26%
    04:00 +8°C° 0 mm 2 mps 685 mmHg 27%
    05:00 +7°C° 0 mm 2 mps 685 mmHg 27%
    06:00 +8°C° 0 mm 3 mps 685 mmHg 27%
    07:00 +9°C° 0 mm 3 mps 685 mmHg 28%
    08:00 +9°C° 0 mm 3 mps 686 mmHg 29%
    09:00 +10°C° 0 mm 4 mps 686 mmHg 28%
    10:00 +11°C° 0 mm 4 mps 685 mmHg 27%
    11:00 +12°C° 0 mm 5 mps 685 mmHg 27%
    12:00 +13°C° 0 mm 5 mps 685 mmHg 25%
    13:00 +13°C° 0 mm 5 mps 685 mmHg 23%
    14:00 +13°C° 0 mm 6 mps 685 mmHg 21%
    15:00 +12°C° 0 mm 7 mps 685 mmHg 22%
    16:00 +12°C° 0 mm 7 mps 685 mmHg 23%
    17:00 +11°C° 0 mm 8 mps 685 mmHg 24%
    18:00 +10°C° 0 mm 7 mps 685 mmHg 28%
    19:00 +9°C° 0 mm 7 mps 685 mmHg 32%
    20:00 +8°C° 0 mm 6 mps 686 mmHg 37%
    21:00 +8°C° 0 mm 6 mps 686 mmHg 40%
    22:00 +7°C° 0 mm 5 mps 686 mmHg 43%
    23:00 +7°C° 0 mm 4 mps 686 mmHg 46%

    Tomorrow, 19 February, Tuesday

    Time Temperature Precipitation Wind Pressure Humidity
    00:00 +7°C° 0 mm 3 mps 686 mmHg 48%
    01:00 +7°C° 0 mm 3 mps 686 mmHg 50%
    02:00 +6°C° 0 mm 2 mps 686 mmHg 52%
    03:00 +6°C° 0 mm 2 mps 686 mmHg 55%
    04:00 +5°C° 0 mm 2 mps 686 mmHg 57%
    05:00 +5°C° 0 mm 2 mps 686 mmHg 60%
    06:00 +6°C° 0 mm 2 mps 687 mmHg 59%
    07:00 +6°C° 0 mm 2 mps 687 mmHg 57%
    08:00 +7°C° 0 mm 2 mps 688 mmHg 56%
    09:00 +8°C° 0 mm 2 mps 688 mmHg 50%
    10:00 +9°C° 0 mm 2 mps 688 mmHg 44%
    11:00 +10°C° 0 mm 3 mps 689 mmHg 39%
    12:00 +12°C° 0 mm 2 mps 688 mmHg 34%
    13:00 +13°C° 0 mm 2 mps 688 mmHg 30%
    14:00 +14°C° 0 mm 2 mps 688 mmHg 25%
    15:00 +14°C° 0 mm 2 mps 688 mmHg 25%
    16:00 +13°C° 0 mm 3 mps 688 mmHg 24%
    17:00 +13°C° 0 mm 3 mps 688 mmHg 23%
    18:00 +13°C° 0 mm 2 mps 688 mmHg 26%
    19:00 +12°C° 0 mm 2 mps 688 mmHg 28%
    20:00 +10°C° 0 mm 2 mps 688 mmHg 30%
    21:00 +11°C° 0 mm 1 mps 688 mmHg 32%
    22:00 +10°C° 0 mm 1 mps 688 mmHg 33%
    23:00 +8°C° 0 mm 0 mps 688 mmHg 35%

    Day after tomorrow, 20 February, Wednesday

    Time Temperature Precipitation Wind Pressure Humidity
    00:00 +8°C° 0 mm 0 mps 688 mmHg 36%
    01:00 +7°C° 0 mm 0 mps 688 mmHg 37%
    02:00 +7°C° 0 mm 0 mps 687 mmHg 38%
    03:00 +7°C° 0 mm 0 mps 687 mmHg 40%
    04:00 +6°C° 0 mm 0 mps 687 mmHg 41%
    05:00 +6°C° 0 mm 0 mps 687 mmHg 42%
    06:00 +7°C° 0 mm 0 mps 688 mmHg 38%
    07:00 +10°C° 0 mm 1 mps 689 mmHg 35%
    08:00 +11°C° 0 mm 1 mps 689 mmHg 31%
    09:00 +12°C° 0 mm 1 mps 689 mmHg 28%
    10:00 +14°C° 0 mm 1 mps 690 mmHg 25%
    11:00 +15°C° 0 mm 1 mps 690 mmHg 22%
    12:00 +16°C° 0 mm 1 mps 689 mmHg 20%
    13:00 +18°C° 0 mm 1 mps 689 mmHg 19%
    14:00 +18°C° 0 mm 1 mps 688 mmHg 17%
    15:00 +18°C° 0 mm 1 mps 688 mmHg 17%
    16:00 +18°C° 0 mm 1 mps 688 mmHg 17%
    17:00 +17°C° 0 mm 2 mps 688 mmHg 16%
    18:00 +16°C° 0 mm 2 mps 688 mmHg 18%
    19:00 +15°C° 0 mm 1 mps 688 mmHg 19%
    20:00 +14°C° 0 mm 1 mps 689 mmHg 21%
    21:00 +13°C° 0 mm 1 mps 688 mmHg 22%
    22:00 +13°C° 0 mm 1 mps 688 mmHg 23%
    23:00 +12°C° 0 mm 1 mps 688 mmHg 24%

    21 February, Thursday

    Time Temperature Precipitation Wind Pressure Humidity
    00:00 +11°C° 0 mm 1 mps 687 mmHg 25%
    01:00 +11°C° 0 mm 1 mps 687 mmHg 26%
    02:00 +10°C° 0 mm 1 mps 687 mmHg 27%
    03:00 +10°C° 0 mm 1 mps 686 mmHg 29%
    04:00 +9°C° 0 mm 1 mps 686 mmHg 30%
    05:00 +9°C° 0 mm 1 mps 686 mmHg 32%
    06:00 +10°C° 0 mm 1 mps 687 mmHg 31%
    07:00 +11°C° 0 mm 1 mps 687 mmHg 30%
    08:00 +12°C° 0 mm 1 mps 688 mmHg 29%
    09:00 +13°C° 0 mm 1 mps 688 mmHg 27%
    10:00 +14°C° 0 mm 1 mps 688 mmHg 25%
    11:00 +16°C° 0 mm 2 mps 688 mmHg 23%
    12:00 +17°C° 0 mm 2 mps 688 mmHg 20%
    13:00 +18°C° 0 mm 3 mps 688 mmHg 17%
    14:00 +19°C° 0 mm 3 mps 687 mmHg 14%
    15:00 +19°C° 0 mm 3 mps 687 mmHg 14%
    16:00 +18°C° 0 mm 3 mps 687 mmHg 14%
    17:00 +18°C° 0 mm 3 mps 687 mmHg 15%
    18:00 +17°C° 0 mm 3 mps 687 mmHg 19%
    19:00 +16°C° 0 mm 3 mps 687 mmHg 23%
    20:00 +13°C° 0 mm 3 mps 687 mmHg 27%
    21:00 +13°C° 0 mm 3 mps 687 mmHg 30%
    22:00 +12°C° 0 mm 3 mps 687 mmHg 32%
    23:00 +11°C° 0 mm 3 mps 687 mmHg 34%

    22 February, Friday

    Time Temperature Precipitation Wind Pressure Humidity
    00:00 +10°C° 0 mm 3 mps 687 mmHg 37%
    01:00 +10°C° 0 mm 2 mps 687 mmHg 39%
    02:00 +9°C° 0 mm 2 mps 686 mmHg 42%
    03:00 +8°C° 0 mm 2 mps 686 mmHg 44%
    04:00 +8°C° 0 mm 2 mps 686 mmHg 46%
    05:00 +7°C° 0 mm 2 mps 686 mmHg 48%
    06:00 +8°C° 0 mm 2 mps 687 mmHg 48%
    07:00 +8°C° 0 mm 2 mps 687 mmHg 47%
    08:00 +9°C° 0 mm 2 mps 687 mmHg 46%
    09:00 +10°C° 0 mm 2 mps 687 mmHg 42%
    10:00 +13°C° 0 mm 2 mps 687 mmHg 38%
    11:00 +14°C° 0 mm 2 mps 687 mmHg 34%
    12:00 +15°C° 0 mm 2 mps 687 mmHg 30%
    13:00 +16°C° 0 mm 2 mps 687 mmHg 27%
    14:00 +18°C° 0 mm 1 mps 686 mmHg 23%
    15:00 +17°C° 0 mm 2 mps 686 mmHg 23%
    16:00 +17°C° 0 mm 3 mps 686 mmHg 23%
    17:00 +17°C° 0 mm 3 mps 686 mmHg 23%
    18:00 +16°C° 0 mm 3 mps 686 mmHg 25%
    19:00 +14°C° 0 mm 3 mps 686 mmHg 27%
    20:00 +13°C° 0 mm 3 mps 686 mmHg 29%
    21:00 +13°C° 0 mm 2 mps 686 mmHg 30%
    22:00 +13°C° 0 mm 1 mps 686 mmHg 31%
    23:00 +11°C° 0 mm 0 mps 686 mmHg 32%

    23 February, Saturday

    Time Temperature Precipitation Wind Pressure Humidity
    00:00 +10°C° 0 mm 0 mps 686 mmHg 33%
    01:00 +10°C° 0 mm 0 mps 685 mmHg 33%
    02:00 +10°C° 0 mm 1 mps 685 mmHg 34%
    03:00 +10°C° 0 mm 1 mps 685 mmHg 35%
    04:00 +8°C° 0 mm 0 mps 685 mmHg 36%
    05:00 +8°C° 0 mm 0 mps 685 mmHg 38%
    06:00 +9°C° 0 mm 0 mps 685 mmHg 35%
    07:00 +11°C° 0 mm 0 mps 686 mmHg 31%
    08:00 +12°C° 0 mm 0 mps 686 mmHg 28%
    09:00 +15°C° 0 mm 1 mps 686 mmHg 24%
    10:00 +17°C° 0 mm 2 mps 686 mmHg 19%
    11:00 +19°C° 0 mm 2 mps 687 mmHg 14%
    12:00 +20°C° 0 mm 3 mps 686 mmHg 12%
    13:00 +22°C° 0 mm 4 mps 686 mmHg 11%
    14:00 +23°C° 0 mm 6 mps 685 mmHg 9%
    15:00 +22°C° 0 mm 6 mps 685 mmHg 9%
    16:00 +22°C° 0 mm 6 mps 685 mmHg 10%
    17:00 +21°C° 0 mm 6 mps 684 mmHg 11%
    18:00 +19°C° 0 mm 5 mps 684 mmHg 15%
    19:00 +17°C° 0 mm 5 mps 684 mmHg 18%
    20:00 +17°C° 0 mm 4 mps 684 mmHg 22%
    21:00 +15°C° 0 mm 4 mps 684 mmHg 25%
    22:00 +14°C° 0 mm 3 mps 684 mmHg 27%
    23:00 +14°C° 0 mm 3 mps 684 mmHg 29%
    Show more